Simultaneous Nadir Overpasses (SNOs) Predictions

Prediction of SNOs over PacNW region [( 10.00, 139.50) to ( 22.70, 165.60)] between AQUA and NPP Satellites:

Table of predicted SNOs over PacNW region for the next 30.0 days since TLE Epoch: 12/25/2021
Index Date (AQUA) Time (AQUA) AQUA Lat,Lon Date (NPP) Time (NPP) NPP Lat,Lon Distance(km) Time Diff (sec)
1 12/29/2021 15:10:38 22.59, 159.81 12/29/2021 15:12:00 23.20, 157.13 282.47 82
2 01/01/2022 03:32:29 22.65, 147.48 01/01/2022 03:29:00 25.45, 144.97 403.14 209
3 01/06/2022 16:00:06 22.60, 147.46 01/06/2022 16:02:33 23.24, 144.49 312.74 147
4 01/14/2022 15:10:37 22.64, 159.86 01/14/2022 15:11:36 23.26, 157.22 278.93 59
5 01/17/2022 03:32:27 22.70, 147.52 01/17/2022 03:28:57 26.67, 144.73 524.00 210
